This demonstration page uses our WeatherBlox Daily Observations layout. Learn more.

Left ArrowRight Arrow

Hourly Observations for April 11, 2015

Temp ( °F °C ) Dew Point ( °F °C ) Humidity (%) Winds ( mph kmh ) Pressure ( in mb ) Visibility ( mi km ) Precip ( " mm )
12:53 am 00:53 Clear 48 8.9 26 -3.3 42 42 N N/A 29.67 1005 10 16 N/A
1:53 am 01:53 Clear 46 7.8 29 -1.7 51 51 SW 3 6 29.64 1004 10 16 N/A
2:53 am 02:53 Clear 44 6.7 29 -1.7 55 55 SW 5 7 29.61 1003 10 16 N/A
3:53 am 03:53 Clear 44 6.7 29 -1.7 55 55 SW 12 19 29.60 1002 10 16 N/A
4:53 am 04:53 Clear 42 5.6 29 -1.7 60 60 WSW 12 19 29.59 1002 10 16 N/A
5:53 am 05:53 Clear 45 7.2 28 -2.2 52 52 SSW 15 24 29.58 1002 10 16 N/A
6:53 am 06:53 Sunny 46 7.8 28 -2.2 50 50 SW 12 19 29.57 1001 10 16 N/A
7:53 am 07:53 Sunny 46 7.8 32 undefined 58 58 W 6 9 29.57 1001 10 16 N/A
8:53 am 08:53 Mostly Sunny 51 10.6 33 0.6 50 50 WSW 10 17 29.57 1001 10 16 N/A
9:53 am 09:53 Mostly Sunny 59 15 30 -1.1 33 33 WSW 22 35 29.54 1000 10 16 N/A
10:53 am 10:53 Sunny 60 15.6 32 undefined 35 35 WSW 23 37 29.54 1000 10 16 N/A
11:53 am 11:53 Sunny 63 17.2 30 -1.1 29 29 W 33 54 29.50 999 10 16 N/A
12:53 pm 12:53 Mostly Sunny 64 17.8 27 -2.8 25 25 WSW 26 43 29.49 999 10 16 N/A
1:53 pm 13:53 Cloudy 63 17.2 28 -2.2 27 27 W 23 37 29.48 998 10 16 N/A
2:53 pm 14:53 Cloudy 62 16.7 28 -2.2 28 28 W 26 43 29.48 998 10 16 N/A
3:53 pm 15:53 Sunny 63 17.2 22 -5.6 21 21 W 35 56 29.48 998 10 16 N/A
4:53 pm 16:53 Sunny 62 16.7 21 -6.1 21 21 W 37 59 29.49 999 10 16 N/A
5:53 pm 17:53 Sunny 59 15 22 -5.6 24 24 W 37 59 29.50 999 10 16 N/A
6:53 pm 18:53 Sunny 56 13.3 17 -8.3 22 22 W 33 54 29.52 1000 10 16 N/A
7:53 pm 19:53 Sunny 53 11.7 18 -7.8 25 25 W 26 43 29.55 1001 10 16 N/A
8:53 pm 20:53 Clear 50 10 16 -8.9 26 26 W 26 43 29.59 1002 10 16 N/A
9:53 pm 21:53 Clear 47 8.3 17 -8.3 30 30 W 22 35 29.62 1003 10 16 N/A
10:53 pm 22:53 Clear 46 7.8 18 -7.8 32 32 W 17 28 29.64 1004 10 16 N/A
11:53 pm 23:53 Clear 44 6.7 18 -7.8 35 35 W 23 37 29.66 1004 10 16 N/A

Powered by AerisWeather